Tracking 23446 objects as of 19-Jun-2021
HD Live streaming from Space Station
objects crossing your sky now

ONEWEB-0211

Track ONEWEB-0211 now!
10-day predictions
ONEWEB-0211 is classified as:


NORAD ID: 48767
Int'l Code: 2021-045A
Perigee: 461.1 km
Apogee: 470.4 km
Inclination: 87.4 °
Period: 93.8 minutes
Semi major axis: 6836 km
RCS: Unknown
Launch date: May 28, 2021
Source: United Kingdom (UK)
Launch site: VOSTOCHNY COSMODROME (VOSTO)
aabbcc
Your satellite tracking list
Your tracking list is empty




NASA's NSSDC Master Catalog

Two Line Element Set (TLE):
1 48767U 21045A   21170.58334491 -.00898391  00000-0 -28121-1 0  9997
2 48767  87.4081 268.8617 0006790 178.4121 358.7831 15.35779836  1882
Source of the keplerian elements: AFSPC